{"data":{"norad_id":61975,"intl_designator":"2024-210S","name":"STARLINK-32586","alt_names":[],"object_type":"PAYLOAD","status":"ACTIVE","operator":null,"country":"US","launch_date":"2024-11-14","launch_site_code":"AFETR","launch_vehicle":null,"mission":null,"orbit_class":"UNKNOWN","rcs_meters":null,"size_class":null,"mass_kg":null,"dimensions":null,"purposes":["comms"],"wikipedia_slug":null,"has_3d_model":false,"image_url":null,"decayed_at":null,"tle_current":{"epoch":"2026-05-24T22:58:27.759072Z","epoch_age_seconds":79082,"freshness":"FRESH","line1":"1 61975U 24210S   26144.95726573  .00014454  00000+0  53357-3 0  9991","line2":"2 61975  43.0001 109.1384 0001542 267.4374  92.6301 15.27590199 86541","mean_motion":15.27590199,"eccentricity":0.0001542,"inclination_deg":43.0001,"raan_deg":109.1384,"arg_perigee_deg":267.4374,"mean_anomaly_deg":92.6301,"bstar":0.00053357,"rev_number":8654,"period_min":94.266119338986,"perigee_km":481.96056654765,"apogee_km":484.07654692135,"semimajor_km":6861.1555567345,"source":"CELESTRAK","updated_at":"2026-05-25T13:38:19.515572Z"}}}